Location: Borovka
(49.7741°N, 14.5280°E)
Time: 18:21:57
(UTC+00:00)

Cosmos 1400 Rocket - Pass Details

Date: 17 November 2025
Orbit: 476 x 514 km, 81.1° (Epoch: 10 December)

Event Time Altitude Azimuth Distance (km) Brightness Sun altitude
Rises 17:25:19 0° 187° (S) 2,619 6.4 -20.6°
Reaches altitude 10° 17:27:26 10° 186° (S) 1,734 5.5 -21.0°
Enters shadow 17:31:01 74° 147° (SSE) 536 2.6 -21.5°
